Location: Gez
(43.0167°N, 0.1000°W)
Time: 23:09:29
(UTC+00:00)

SL-24 R/B - Visible Passes

Search period start: 13 January 2026 00:00
Search period end: 23 January 2026 00:00
Orbit: 679 x 1188 km, 98.2° (Epoch: 13 January)

Date Brightness Start Highest point End Pass type
(mag) Time Alt. Az. Time Alt. Az. Time Alt. Az.
13 Jan 7.6 03:04:47 10° NNE 03:08:12 25° NE 03:08:12 25° NE visible
13 Jan 6.3 04:46:49 10° N 04:51:57 44° NNW 04:51:57 44° NNW visible
13 Jan 7.4 06:32:29 10° NNW 06:34:40 12° NW 06:35:43 11° WNW visible
14 Jan 7.4 03:17:03 10° NNE 03:20:53 29° NE 03:20:53 29° NE visible
14 Jan 6.4 04:59:26 10° N 05:04:39 39° NW 05:04:39 39° NW visible
15 Jan 7.1 03:29:23 10° NNE 03:33:34 34° NE 03:33:34 34° NE visible
15 Jan 6.5 05:12:06 10° N 05:17:20 34° NW 05:17:20 34° NW visible
16 Jan 6.9 03:41:47 10° NNE 03:46:15 39° NE 03:46:15 39° NE visible
16 Jan 6.7 05:24:49 10° N 05:30:01 30° NW 05:30:01 30° NW visible
17 Jan 8.5 02:14:41 10° NE 02:15:10 11° ENE 02:15:10 11° ENE visible
17 Jan 6.7 03:54:13 10° NNE 03:58:56 44° NNE 03:58:56 44° NNE visible
17 Jan 6.8 05:37:35 10° N 05:42:42 25° NW 05:42:42 25° NW visible
18 Jan 8.3 02:26:13 10° NE 02:27:52 14° ENE 02:27:52 14° ENE visible
18 Jan 6.5 04:06:42 10° NNE 04:11:37 47° NNE 04:11:37 47° NNE visible
18 Jan 7.0 05:50:26 10° NNW 05:55:23 21° NW 05:55:23 21° NW visible
19 Jan 8.1 02:38:07 10° NE 02:40:32 17° ENE 02:40:32 17° ENE visible
19 Jan 6.3 04:19:13 10° N 04:24:19 49° N 04:24:19 49° N visible
19 Jan 7.1 06:03:24 10° NNW 06:07:45 17° NW 06:08:04 17° WNW visible
20 Jan 7.9 02:50:11 10° NE 02:53:13 21° NE 02:53:13 21° NE visible
20 Jan 6.3 04:31:47 10° N 04:36:59 47° NNW 04:36:59 47° NNW visible
20 Jan 7.3 06:16:33 10° NNW 06:19:57 14° NW 06:20:45 14° WNW visible
21 Jan 7.6 03:02:22 10° NNE 03:05:54 25° NE 03:05:54 25° NE visible
21 Jan 6.3 04:44:23 10° N 04:49:39 44° NNW 04:49:39 44° NNW visible
21 Jan 7.4 06:30:10 10° NNW 06:32:09 11° NW 06:33:25 11° WNW visible
22 Jan 7.4 03:14:39 10° NNE 03:18:34 29° NE 03:18:34 29° NE visible
22 Jan 6.4 04:57:02 10° N 05:02:20 39° NW 05:02:20 39° NW visible
